« Back
NWS Peachtree City, Ga » Text Product » GA Regional Weather Roundup


Printer-friendly Version
Current Version              Previous Versions:   1  2  3  4  5  6  7  8  9  

Regional Weather Roundup

506
ASUS42 KFFC 111703
RWRGA
WEATHER ROUNDUP FOR GEORGIA
NATIONAL WEATHER SERVICE PEACHTREE CITY GA
1200 PM EST THU FEB 11 2016

NOTE: "FAIR" INDICATES FEW OR NO CLOUDS BELOW 12,000 FEET WITH NO
SIGNIFICANT WEATHER AND/OR OBSTRUCTIONS TO VISIBILITY.

* = USE WITH CAUTION. THE STATIONS MARKED WITH AN ASTERISK MAY NOT
REPORT WEATHER SUCH AS PRECIPITATION, FOG, OR THUNDER AND ARE NOT
QUALITY CONTROLLED BY NWS.

THE REMARK "TC" DENOTES TEMPERATURE READING IN DEGREES CELSIUS.

GAZ001>058-111800-
NORTH GEORGIA

CITY           SKY/WX    TMP DP  RH WIND       PRES   REMARKS
ATLANTA        SUNNY     46  17  31 CALM      30.18F
ATHENS         SUNNY     48  17  29 VRB5      30.19F
CHAMBLEE       SUNNY     46  17  31 VRB5      30.17F
PEACHTREE CITY SUNNY     46  21  37 VRB3      30.20S
ROME             N/A     44  18  35 NE9       30.20F
WEST ATLANTA   SUNNY     46  15  28 VRB5      30.18F
GAINESVILLE    SUNNY     43  18  36 NW5       30.18F
CARTERSVILLE   SUNNY     43  17  35 NE6       30.20F


CITY           SKY/WX    TMP DP  RH WIND       PRES   REMARKS
LAWRENCEVILLE* SUNNY     45  18  33 SW5       30.18F
KENNESAW*      SUNNY     46  16  29 NE5       30.19F
BLAIRSVILLE*     N/A     40 -21   7 N7        30.15F
$$

GAZ059>098-102>109-111800-
CENTRAL GEORGIA

CITY           SKY/WX    TMP DP  RH WIND       PRES   REMARKS
AUGUSTA-BUSH   SUNNY     49  16  26 SE3       30.22F
COLUMBUS       SUNNY     54  32  43 W8        30.19F
MACON          SUNNY     51  28  41 W9        30.21F
ROBINS AFB     SUNNY     52  26  36 VRB3      30.20F


CITY           SKY/WX    TMP DP  RH WIND       PRES   REMARKS
LAGRANGE*      SUNNY     52  35  52 NW5       30.18F
SYLVANIA*      SUNNY     50  24  36 CALM      30.25F
MILLEDGEVILLE* SUNNY     46  16  29 CALM      30.22F
$$

GAZ099>101-110>166-111800-
SOUTH GEORGIA

CITY           SKY/WX    TMP DP  RH WIND       PRES   REMARKS
SAVANNAH       SUNNY     52  19  27 S6        30.25F
VALDOSTA       SUNNY     63  41  44 VRB5      30.25F
ALMA           SUNNY     58  31  35 SW9       30.22F
ST SIMONS      SUNNY     55  31  39 SW8       30.25F
FT STEWART     SUNNY     56  26  32 W8        30.22F
ALBANY         SUNNY     61  38  42 W9G17     30.22F
HUNTER AFB     SUNNY     52  23  31 VRB5      30.22F
MOODY AFB      SUNNY     62  38  41 SW13G18   30.22F
BRUNSWICK      SUNNY     59  32  36 SW9       30.26F


CITY           SKY/WX    TMP DP  RH WIND       PRES   REMARKS
BAINBRIDGE*    SUNNY     63  41  45 SW14G20   30.23F
MOULTRIE*      SUNNY     59  39  47 SW9G16    30.24F
VIDALIA*       SUNNY     54  28  37 SW3       30.22F
WAYCROSS*      SUNNY     61  38  42 W12       30.23F
DOUGLAS*       SUNNY     61  34  36 W7        30.23F
$$




USA.gov is the U.S. government's official web portal to all federal, state and local government web resources and services.